Regional Weather Roundup
Issued by NWS

Home | Current Version | Previous Version | Text Only | Print | Product List | Glossary On
Versions: 1 2 3 4 5 6 7 8 9 10 11 12 13 14 15 16 17 18 19 20 21 22 23 24 25 26 27 28 29 30 31 32 33 34 35 36 37 38 39 40 41 42 43 44 45 46 47 48 49 50
000
ASUS43 KDTX 220510
RWRMI
MICHIGAN HOURLY REGIONAL WEATHER ROUNDUP
NATIONAL WEATHER SERVICE DETROIT/PONTIAC MI
100 AM EDT TUE JUL 22 2014

NOTE: "FAIR" INDICATES FEW OR NO CLOUDS BELOW 12,000 FEET WITH NO
SIGNIFICANT WEATHER AND/OR OBSTRUCTION TO VISIBILITY.

MIZ047>049-052>055-059>063-066>070-074>076-081>083-220600-
SOUTHEAST LOWER MICHIGAN

CITY           SKY/WX    TMP DP  RH WIND       PRES   REMARKS
ADRIAN         CLEAR     65  60  84 CALM      30.13R
ALMA           CLEAR     65  64  95 CALM      30.09F
ANN ARBOR      CLEAR     62  58  86 CALM      30.12S
BAD AXE        CLEAR     67  61  80 CALM      30.11R
CARO           CLEAR     67  66  96 CALM      30.10S
DETROIT CITY   CLEAR     72  56  57 S3        30.12S
DETROIT        CLEAR     70  62  76 CALM      30.12S
FLINT          CLEAR     71  56  58 S6        30.11S
GROSSE ILE     CLEAR     70  63  78 CALM      30.11R
HILLSDALE      CLEAR     69  65  84 SE5       30.12F
HOWELL         CLEAR     66  59  76 SE3       30.11F

CITY           SKY/WX    TMP DP  RH WIND       PRES   REMARKS
JACKSON        CLEAR     69  61  75 SE7       30.11F
LAMBERTVILLE   CLEAR     64  61  88 CALM      30.12S
LANSING        CLEAR     72  62  71 S8        30.11R
LAPEER         FAIR      65  59  80 CALM      30.12S
MASON          CLEAR     66  60  80 S3        30.11S
MONROE         CLEAR     66  61  82 CALM      30.10S
MT. CLEMENS    CLEAR     66  59  78 CALM      30.10F
PONTIAC        CLEAR     70  57  63 S3        30.11F
PORT HOPE        N/A     72  62  71 S5        30.08S
PORT HURON     CLEAR     61  61 100 CALM      30.11F FOG
TRI CITIES     CLEAR     73  64  73 S5        30.09S
TROY           CLEAR     72  54  53 CALM      30.13S
SAGINAW HB     CLEAR     68  64  88 SE3       30.09R
$$
MIZ043>046-050>051-056>058-064>065-071>073-077>080-220600-
SOUTHWEST LOWER MICHIGAN

CITY           SKY/WX    TMP DP  RH WIND       PRES   REMARKS
BATTLE CREEK   CLEAR     69  63  81 CALM      30.10S
BENTON HARBOR  CLEAR     65  63  93 CALM      30.07F FOG
BIG RAPIDS     CLEAR     65  64  99 CALM      30.09S
COLDWATER      CLEAR     69  66  90 S3        30.10F
FREMONT        FAIR      67  62  86 SE3       30.07F
HOLLAND        CLEAR     69  65  86 CALM      30.09S
GRAND RAPIDS   CLEAR     70  66  87 SE6       30.09S
IONIA          FAIR      66  63  89 CALM      30.09R
KALAMAZOO      CLEAR     70  64  81 CALM      30.09S
LUDINGTON      CLEAR     70  62  77 S7        30.05S
MARSHALL       CLEAR     66  63  89 CALM      30.10R
MOUNT PLEASANT CLEAR     66  65  96 CALM      30.09S FOG
MUSKEGON       CLEAR     69  61  75 SE5       30.07S
SOUTH HAVEN    CLEAR     65  65  99 CALM      30.08S
$$
MIZ016>042-220600-
NORTHERN LOWER MICHIGAN

CITY           SKY/WX    TMP DP  RH WIND       PRES   REMARKS
ALPENA         PTCLDY    73  64  73 SW6       30.07R
BEAVER ISLAND  CLEAR     72  62  70 SW6       30.02F
BELLAIRE       CLEAR     65  63  93 CALM      30.04F FOG
CADILLAC       CLEAR     67  63  85 S5        30.08F
CHARLEVOIX     CLEAR     71  64  78 E3        30.05F
FRANKFORT      CLEAR     71  59  65 CALM      30.03F
GAYLORD        CLEAR     75  62  64 S6        30.08F
GRAYLING       CLEAR     64  62  92 CALM      30.10S
HARBOR SPRINGS CLEAR     66  62  86 CALM      30.04F
HOUGHTON LAKE  CLEAR     69  64  84 S5        30.10S
MANISTEE       CLEAR     66  59  77 CALM      30.05S
OSCODA         CLEAR     67  64  90 SW3       30.08S
PELLSTON       CLEAR     66  63  90 SE5       30.05R
ROGERS CITY    CLEAR     70  66  86 S6        30.06S
TRAVERSE CITY  CLEAR     72  61  68 S3        30.03S
$$
MIZ007>008-015-220600-
EASTERN UPPER MICHIGAN

CITY           SKY/WX    TMP DP  RH WIND       PRES   REMARKS
KINROSS        CLEAR     64  61  88 S6        30.04S
MACKINAC ISLAN CLEAR     68  62  83 S7        30.03F
NEWBERRY       CLEAR     65  58  77 S8G16     30.01S
S. S. MARIE    CLEAR     68  58  70 CALM      30.02F
$$
MIZ004>006-011>014-085-220600-
CENTRAL UPPER MICHIGAN

CITY           SKY/WX    TMP DP  RH WIND       PRES   REMARKS
MANISTIQUE     CLEAR     60  58  95 SE5       30.00S
ESCANABA       CLEAR     68  61  77 S7        29.98R
MENOMINEE      CLEAR     70  63  78 SW6       29.97S
SAWYER-GWINN   CLEAR     69  65  85 S10       29.97S
$$
MIZ001>003-009>011-084-220600-
WESTERN UPPER MICHIGAN

CITY           SKY/WX    TMP DP  RH WIND       PRES   REMARKS
IRON MOUNTAIN  CLEAR     72  66  81 SE7       29.97S
HOUGHTON       CLEAR     74  69  85 SW6       29.90F
COPPER HARBOR    N/A     75  69  81 SW5       29.87F
IRONWOOD       CLOUDY    79  70  73 S7        29.84F
$$

ABBREVIATIONS USED IN REMARKS
   TC - TEMPERATURE IN CELSIUS
  WCI - WIND CHILL INDEX
   HX - HEAT INDEX
  VSB - VISIBILITY



USA.gov is the U.S. government's official web portal to all federal, state and local government web resources and services.